C/2019 J2 ( Palomar )

Japanese version
Home page
Updated on August 6, 2019

---------------------------------------------------------------------

* Profile

Discovery Date May 9, 2019
Magnitude 16.8 mag
Discoverer Quan-zhi Ye (Palomar)

* Pictures

* Orbital Elements

Epoch 2019 July 16.0 TT = JDT 2458680.5                                         
T 2019 July 19.72744 TT                                 MPCLINUX                
q   1.7268588            (2000.0)            P               Q                  
z  +0.0016660      Peri.   98.70461     -0.02561484     -0.90940086             
 +/-0.0001782      Node    25.47105     -0.65308596     -0.29917549             
e   0.9971231      Incl.  105.13837     +0.75685045     -0.28893616             
From 156 observations 2019 Apr. 27-July 19, mean residual 0".9.                 

* Finding Charts

* Magnitudes Graph

        m1 = 2.5 + 5 log d + 50 log r(t + 70)

        * Gray curve is:  m1 = 12.0 + 5 log d + 10.0 log r

---------------------------------------------------------------------

The orbital elements are published on M.P.E.C. 2019-O96.
The charts are made with StellaNavigator Ver.10 (AstroArts).
The magnitudes graphs are made with Comet for Windows.

---------------------------------------------------------------------

Copyright(C) Seiichi Yoshida (comet@aerith.net). All rights reserved.